Santa Ynez, CA

7:58 PM PDT on September 26, 2016 (GMT -0700)
Santa Ynez

Weather History for KIZA - September, 2013

Change the Weather History Date:

Tuesday, September 3, 2013

  Actual Average (KSBA) Record (KSBA)
Temperature  
Mean Temperature 74 °F 66 °F  
Max Temperature 89 °F 75 °F 100 °F (1982)
Min Temperature 59 °F 57 °F 46 °F (1942)
Degree Days  
Heating Degree Days 0 1  
Month to date heating degree days 3  
Since 1 July heating degree days 54  
Cooling Degree Days 9 2  
Month to date cooling degree days 6  
Year to date cooling degree days 133  
Growing Degree Days 24 (Base 50)    
Moisture  
Dew Point 54 °F    
Average Humidity 61    
Maximum Humidity 94    
Minimum Humidity 29    
Precipitation  
Precipitation 0.00 in 0.00 in 0.01 in (1998)
Month to date precipitation 0.01  
Year to date precipitation 12.21  
Sea Level Pressure  
Sea Level Pressure 29.92 in    
Wind  
Wind Speed 5 mph (West)    
Max Wind Speed 20 mph    
Max Gust Speed -    
Visibility 10 miles    
Events      
T = Trace of Precipitation, MM = Missing Value Source: NWS Daily Summary

Daily Weather History Graph

Daily Weather History Graph

Search for Another Location

Airport or City:

Trip Planner

Search our weather history database for the weather conditions in past years. The results will help you decide how hot, cold, wet, or windy it might be!

Date:

Astronomy

Sep. 03, 2013 Rise Set
Actual Time 6:35 AM PDT 7:23 PM PDT
Civil Twilight 6:09 AM PDT 7:48 PM PDT
Nautical Twilight 5:39 AM PDT 8:19 PM PDT
Astronomical Twilight 5:08 AM PDT 8:50 PM PDT
Moon 4:55 AM PDT (9/3) 6:12 PM PDT (9/3)
Length of Visible Light 13h 39m
Length of Day
12h 48m
Waning Crescent, 3% of the Moon is Illuminated
Sep 3
Waning Crescent
Sep 5
New
Sep 12
First Quarter
Sep 19
Full
Sep 26
Last Quarter

Hourly Weather History & Observations

Time (PDT) Temp. Heat Index Dew Point Humidity Pressure Visibility Wind Dir Wind Speed Gust Speed Precip Events Conditions
12:15 AM 62.6 °F - 59.0 °F 88% 29.92 in 10.0 mi West 3.5 mph - N/A   Clear
12:35 AM 62.6 °F - 59.0 °F 88% 29.92 in 10.0 mi West 4.6 mph - N/A   Clear
12:55 AM 62.6 °F - 59.0 °F 88% 29.92 in 10.0 mi Calm Calm - N/A   Clear
1:15 AM 62.6 °F - 57.2 °F 82% 29.91 in 10.0 mi Calm Calm - N/A   Clear
1:35 AM 62.6 °F - 57.2 °F 82% 29.91 in 10.0 mi Calm Calm - N/A   Clear
1:55 AM 62.6 °F - 57.2 °F 82% 29.91 in 10.0 mi WSW 3.5 mph - N/A   Clear
2:15 AM 62.6 °F - 57.2 °F 82% 29.90 in 10.0 mi Calm Calm - N/A   Clear
2:35 AM 62.6 °F - 57.2 °F 82% 29.90 in 10.0 mi Calm Calm - N/A   Clear
2:55 AM 60.8 °F - 57.2 °F 88% 29.90 in 10.0 mi Calm Calm - N/A   Clear
3:15 AM 60.8 °F - 57.2 °F 88% 29.90 in 10.0 mi SW 3.5 mph - N/A   Clear
3:35 AM 60.8 °F - 57.2 °F 88% 29.90 in 10.0 mi SW 3.5 mph - N/A   Clear
3:55 AM 60.8 °F - 57.2 °F 88% 29.90 in 10.0 mi West 3.5 mph - N/A   Clear
4:15 AM 60.8 °F - 57.2 °F 88% 29.90 in 10.0 mi WSW 3.5 mph - N/A   Clear
4:35 AM 60.8 °F - 57.2 °F 88% 29.89 in 10.0 mi WSW 3.5 mph - N/A   Clear
4:55 AM 60.8 °F - 57.2 °F 88% 29.90 in 10.0 mi Calm Calm - N/A   Clear
5:15 AM 60.8 °F - 57.2 °F 88% 29.90 in 10.0 mi Calm Calm - N/A   Clear
5:35 AM 60.8 °F - 57.2 °F 88% 29.90 in 10.0 mi West 3.5 mph - N/A   Clear
5:55 AM 60.8 °F - 57.2 °F 88% 29.91 in 10.0 mi WSW 4.6 mph - N/A   Clear
6:15 AM 60.8 °F - 57.2 °F 88% 29.91 in 10.0 mi West 3.5 mph - N/A   Clear
6:35 AM 59.0 °F - 57.2 °F 94% 29.92 in 10.0 mi Calm Calm - N/A   Clear
6:55 AM 59.0 °F - 57.2 °F 94% 29.92 in 10.0 mi Calm Calm - N/A   Clear
7:15 AM 60.8 °F - 57.2 °F 88% 29.93 in 10.0 mi Calm Calm - N/A   Clear
7:35 AM 60.8 °F - 59.0 °F 94% 29.93 in 10.0 mi Calm Calm - N/A   Clear
7:55 AM 62.6 °F - 59.0 °F 88% 29.93 in 10.0 mi Calm Calm - N/A   Clear
8:15 AM 64.4 °F - 59.0 °F 83% 29.93 in 10.0 mi Calm Calm - N/A   Clear
8:35 AM 68.0 °F - 59.0 °F 73% 29.93 in 10.0 mi Calm Calm - N/A   Clear
8:55 AM 69.8 °F - 59.0 °F 68% 29.93 in 10.0 mi Calm Calm - N/A   Clear
9:15 AM 71.6 °F - 59.0 °F 64% 29.93 in 10.0 mi WSW 4.6 mph - N/A   Clear
9:35 AM 71.6 °F - 59.0 °F 64% 29.93 in 10.0 mi West 3.5 mph - N/A   Clear
9:55 AM 73.4 °F - 59.0 °F 61% 29.94 in 10.0 mi West 3.5 mph - N/A   Clear
10:15 AM 75.2 °F - 59.0 °F 57% 29.94 in 10.0 mi West 5.8 mph - N/A   Clear
10:35 AM 77.0 °F - 59.0 °F 54% 29.94 in 10.0 mi West 5.8 mph - N/A   Clear
10:55 AM 78.8 °F - 60.8 °F 54% 29.93 in 10.0 mi West 3.5 mph - N/A   Clear
11:15 AM 80.6 °F 81.5 °F 60.8 °F 51% 29.93 in 10.0 mi Calm Calm - N/A   Clear
11:35 AM 82.4 °F 82.5 °F 59.0 °F 45% 29.92 in 10.0 mi West 5.8 mph - N/A   Clear
11:55 AM 86.0 °F 85.4 °F 59.0 °F 40% 29.92 in 10.0 mi West 6.9 mph - N/A   Clear
12:15 PM 86.0 °F 84.9 °F 57.2 °F 37% 29.91 in 10.0 mi NW 6.9 mph - N/A   Clear
12:35 PM 87.8 °F 86.1 °F 55.4 °F 33% 29.91 in 10.0 mi West 12.7 mph - N/A   Clear
12:55 PM 89.6 °F 87.7 °F 55.4 °F 31% 29.91 in 10.0 mi WNW 10.4 mph - N/A   Clear
1:15 PM 89.6 °F 87.7 °F 55.4 °F 31% 29.90 in 10.0 mi WNW 11.5 mph - N/A   Clear
1:35 PM 89.6 °F 87.7 °F 55.4 °F 31% 29.90 in 10.0 mi WNW 11.5 mph - N/A   Clear
1:55 PM 89.6 °F 87.3 °F 53.6 °F 29% 29.90 in 10.0 mi West 18.4 mph - N/A   Clear
2:15 PM 87.8 °F 85.7 °F 53.6 °F 31% 29.90 in 10.0 mi WNW 15.0 mph - N/A   Clear
2:35 PM 87.8 °F 85.7 °F 53.6 °F 31% 29.90 in 10.0 mi WNW 16.1 mph - N/A   Clear
2:55 PM 86.0 °F - 51.8 °F 31% 29.90 in 10.0 mi West 17.3 mph - N/A   Clear
3:15 PM 86.0 °F - 50.0 °F 29% 29.89 in 10.0 mi West 19.6 mph - N/A   Clear
3:35 PM 84.2 °F - 50.0 °F 30% 29.90 in 10.0 mi West 17.3 mph - N/A   Clear
3:55 PM 84.2 °F - 50.0 °F 30% 29.89 in 10.0 mi West 16.1 mph - N/A   Clear
4:15 PM 82.4 °F - 50.0 °F 32% 29.89 in 10.0 mi West 18.4 mph - N/A   Clear
4:35 PM 82.4 °F - 48.2 °F 30% 29.90 in 10.0 mi WNW 13.8 mph - N/A   Clear
4:55 PM 80.6 °F - 48.2 °F 32% 29.90 in 10.0 mi West 16.1 mph - N/A   Clear
5:15 PM 80.6 °F - 46.4 °F 30% 29.90 in 10.0 mi West 15.0 mph - N/A   Clear
5:35 PM 78.8 °F - 46.4 °F 32% 29.90 in 10.0 mi West 13.8 mph - N/A   Clear
5:55 PM 77.0 °F - 46.4 °F 34% 29.90 in 10.0 mi West 12.7 mph - N/A   Clear
6:15 PM 75.2 °F - 46.4 °F 36% 29.90 in 10.0 mi West 13.8 mph - N/A   Clear
6:35 PM 73.4 °F - 46.4 °F 38% 29.90 in 10.0 mi West 11.5 mph - N/A   Clear
6:55 PM 71.6 °F - 46.4 °F 41% 29.90 in 10.0 mi West 9.2 mph - N/A   Clear
7:15 PM 69.8 °F - 46.4 °F 43% 29.90 in 10.0 mi West 9.2 mph - N/A   Clear
7:35 PM 68.0 °F - 46.4 °F 46% 29.91 in 10.0 mi West 10.4 mph - N/A   Clear
7:55 PM 68.0 °F - 48.2 °F 49% 29.92 in 10.0 mi West 8.1 mph - N/A   Clear
8:15 PM 66.2 °F - 48.2 °F 52% 29.92 in 10.0 mi West 8.1 mph - N/A   Clear
8:35 PM 64.4 °F - 48.2 °F 56% 29.93 in 10.0 mi West 4.6 mph - N/A   Clear
8:55 PM 64.4 °F - 48.2 °F 56% 29.93 in 10.0 mi Calm Calm - N/A   Clear
9:15 PM 64.4 °F - 48.2 °F 56% 29.94 in 10.0 mi Calm Calm - N/A   Clear
9:35 PM 64.4 °F - 50.0 °F 59% 29.95 in 10.0 mi WSW 4.6 mph - N/A   Clear
9:55 PM 62.6 °F - 50.0 °F 63% 29.95 in 10.0 mi WSW 3.5 mph - N/A   Clear
10:15 PM 62.6 °F - 50.0 °F 63% 29.95 in 10.0 mi WSW 5.8 mph - N/A   Clear
10:35 PM 62.6 °F - 50.0 °F 63% 29.95 in 10.0 mi WSW 4.6 mph - N/A   Clear
10:55 PM 60.8 °F - 51.8 °F 72% 29.96 in 10.0 mi WSW 4.6 mph - N/A   Clear
11:15 PM 60.8 °F - 51.8 °F 72% 29.96 in 10.0 mi SW 3.5 mph - N/A   Clear
11:35 PM 60.8 °F - 51.8 °F 72% 29.96 in 10.0 mi WSW 4.6 mph - N/A   Clear
11:55 PM 60.8 °F - 51.8 °F 72% 29.96 in 10.0 mi West 3.5 mph - N/A   Clear